Location: Newark
(36.0000°N, 138.0000°E)
Time: 10:18:13
(UTC+00:00)

OTV 5 (USA 277) - Visible Passes

Search period start: 26 March 2019 00:00
Search period end: 05 April 2019 00:00
Orbit: 315 x 320 km, 54.5° (Epoch: 14 March)

Date Brightness Start Highest point End Pass type
(mag) Time Alt. Az. Time Alt. Az. Time Alt. Az.
29 Mar ? 19:48:14 10° S 19:50:31 25° SE 19:52:48 10° ENE visible
30 Mar ? 20:02:25 10° SW 20:05:06 85° NW 20:07:49 10° NE visible
31 Mar ? 18:45:48 14° ESE 18:45:48 14° ESE 18:47:17 10° E visible
01 Apr ? 19:00:23 46° ESE 19:00:23 46° ESE 19:02:52 10° NE visible
02 Apr ? 19:14:51 42° NW 19:14:55 43° NW 19:17:31 10° NNE visible
03 Apr ? 19:29:13 15° NW 19:29:44 16° NW 19:31:34 10° N visible
04 Apr ? 18:12:35 11° NE 18:12:35 11° NE 18:12:42 10° NE visible
